Location: Camp at the Woods
(43.2055°N, 93.0905°W)
Time: 06:27:30
(UTC+00:00)

Cosmos 2227 Rocket - Visible Passes

Search period start: 21 May 2024 00:00
Search period end: 31 May 2024 00:00
Orbit: 837 x 846 km, 71.0° (Epoch: 20 May)

Date Brightness Start Highest point End Pass type
(mag) Time Alt. Az. Time Alt. Az. Time Alt. Az.
27 May 3.0 09:52:54 10° S 09:58:22 50° ESE 10:03:50 10° NE visible
28 May 3.1 09:37:48 10° S 09:43:13 48° ESE 09:48:38 10° NE visible
29 May 3.1 09:22:42 10° S 09:28:03 45° ESE 09:33:26 10° NE visible
30 May 3.2 09:07:36 10° S 09:12:54 43° ESE 09:18:14 10° NE visible
